STARLINK-2493

Last updated on Sat May 08 2021 00:02:05 GMT+0000 (Coordinated Universal Time)

1 48150U 21027BL 21127.58334491 .00025089 00000-0 18269-3 0 9993 2 48150 53.0477 191.7828 0002393 28.5610 257.3731 15.73189130 1772
UTC large
Height (km)
Speed (km/s)
/
Latitude / Longitude
Inclination (degrees)
Orbital Period (minutes)
Azimuth
Elevation
Range (km)
Doppler Factor

Next 0 passes for location: London (51.5072 / 0.1276)

Sorry there are no passes over London.